星链-3107 (STARLINK-3107 )

导读

STARLINK-3107是美国SpaceX公司星链(Starlink)星座的卫星,于2021年9月14日发射升空,属于星链低轨互联网星座的组网卫星之一,承担全球卫星互联网服务组网任务。这类低轨卫星通过批量部署,可为全球提供高速宽带网络接入服务,尤其覆盖地面通信难以企及的偏远区域。

基本信息
目录编号:
49171
目录名称:
STARLINK-3107
国际标识:
2021-082AT
轨道中心:
EARTH
卫星名称:
星链-3107
卫星全名:
星链-3107 (STARLINK-3107 )
卫星状态:
在轨 (已飞行1738 天)
发射日期:
2021-09-14 UTC
国别 :
美国 (US)
星等 :
--
轨道信息
数据来源 国际轨道数据
星历时间: 2026-06-18T02:26:28+0800
13小时前
查看轨道信息
半长轴: 6900.228km
偏心率: 0.0003122
轨道倾角: 69.994°
近地点辐角 167.792°
升交点赤经 29.855°
平近点角 192.333°
近地点: 519.936km
远地点: 524.246km
周期: 95.072分钟
每日圈数: 15.146339
详细信息
固有亮度:
5
最大亮度:
2.5
卫星平台:
Starlink v1.5
覆盖范围:
全球
运营商:
太空探索技术公司
运营商所在国:
美国
制造商(研发单位):
太空探索技术公司
制造商所在国:
美国
使用方式:
暂无
卫星简介
星链(Starlink)计划是由太空探索技术公司(SpaceX)提出的一个巨型低轨卫星互联网星座项目,计划在2019年至2024年间在太空搭建由约1.2万颗卫星组成的“星链”网络,其中1584颗将部署在地球上空550千米处的近地轨道,并从2020年开始工作。该卫星仍在工作。
2D轨道图
3D轨道图
轨道高度分析图
轨道倾角分析图
轨道综合分析图
查看轨道综合分析图